DECAYED

FENGYUN 1C DEB, 31765 (Decayed)

Orbit data source: Space-Track

FENGYUN 1C DEB, 31765 was space debris in SSO originally from a launch on Mon, 10 May 1999 UTC launched from the Taiyaun Space Center, China (TSC). Fengyun 1C debris stems from the Chinese weather satellite Fengyun-1C, which was intentionally destroyed by a Chinese anti-satellite missile in 2007. This event dramatically increased the amount of space debris, with thousands of trackable fragments posing hazards to satellites and human spaceflight. The Fengyun 1C debris cloud has become a focal point in discussions about space sustainability and the need for international regulations to prevent the creation of new debris.

Not visible in the next 10 days
Identifier
31765, 1999-025CFQ
Orbit
Decayed
Country
Flag of CNCN / PRC
Related business
Manufacturer
Unknown
Mission
Decayed spacecraft
Bus & Motor
Unknown
Mass
Unknown
Launch date (UTC)
1999-05-10 (27 years ago)
Launch vehicle
Unknown
Launch site
Taiyaun Space Center, China (TSC)
Object type
Payload
Rocket body
Debris
Shape & HBR
Unknown shape, 0.1 m
Radar Cross Section
Small (<0.1 m²)

Expand to show TLE details & history
Last TLE update: 11 months ago

TLE from 11 months ago
0 FENGYUN 1C DEB
1 31765U 99025CFQ 25054.11890096  .01256301  00000-0  40743-1 0  9994
2 31765  99.0513 272.2885 0028948 272.6144 215.2402 15.28823954899056
Epoch: 2025-02-23T02:51Z
TLE epoch observation values (Epoch: 2025-02-23T02:51:13.042Z)
Latitude
51.52713°
Longitude
-92.27229°
Altitude
503.881 km
Speed
7.608 km/s
True Right ascension
06h 55m 09s
True Declination
51° 21' 12"
Sunlit
Object was in full shadow at epoch
Visualization orbit readout
Latitude
Unknown
Longitude
Unknown
Altitude
Unknown
Speed
Unknown
Apparent Right ascension
Unknown
Apparent Declination
Unknown
Sunlit
N/A
Visualization observer readout
Local Sidereal Time
23:49:54
Azimuth
Unknown
Elevation
Unknown
Doppler factor
Unknown
Orbital elements
Apogee altitude
496.202 km
Perigee altitude
456.517 km
Semi-major axis
6,854.496 km
Eccentricity
0.00289
Inclination
99.0513°
RAAN
272.2885°
Arg. of periapsis
272.6144°
True anomaly
215.04936°
Mean anomaly
215.2402°
Eccentric anomaly
215.14472°
Mean motion
3.82455 °/min
Orbital period
94.13 mins
BSTAR
0.040743
Loading maneuver chart data...
Computing Atmospheric mass density...

Documentation

Showing up to 5 results
|